カタログに戻る

ATLAS 5 CENTAUR R/B

運用中HEO
NORAD 37774·ROCKET BODY·🇺🇸 United States

打ち上げ Aug 5, 2011 から Cape Canaveral Space Force Station

Loading…

次のパス (今後24時間)

TLE

古いSource: Space-Track

元期: Aug 5, 2011, 22:14 UTC

1 37774U 11040B   11217.92695602 -.00010587 +00000-0 +00000-0 0  9997
2 37774 046.1373 048.0657 9000000 218.7772 083.3600 00.10000046000008

AllMySatでATLAS 5 CENTAUR R/Bをリアルタイム追跡

Download on the App Store